Flag for Germany Weather past 2 weeks in Neuruppin, Brandenburg, Germany

Now
51 °F

Sunny.


Feels Like: 51 °F
Forecast: 54 / 79 °F
Wind: 1 mph from Northeast

Location: Neuruppin

Current Time: Aug 1, 2015 at 8:58:13 AM

Latest Report: Aug 1, 2015 at 8:00 AM


Visibility: 6 mi

Pressure: 30.10 "Hg

Humidity: 89%

Dew point: 48 °F

Location of NeuruppinLocation

Historic Weather in Neuruppin — Graph

°F

Neuruppin temperature yesterday

Maximum temperature yesterday: 63 °F (at 3:00 PM)
Minimum temperature yesterday: 50 °F (at 4:00 AM)
Average temperature yesterday: 57 °F

Past Weeks' High & Low Weather Summary

 TemperatureHumidityPressure
High83 °F (Jul 17, 6:00 PM)97% (Jul 20, 12:00 AM)30.12 "Hg (Jul 20, 12:00 AM)
Low46 °F (Aug 1, 4:00 AM)35% (Jul 25, 4:00 PM)29.50 "Hg (Jul 25, 3:00 PM)
Average64 °F71%29.84 "Hg
* Reported Jul 17 7:00 AM — Aug 1 7:00 AM, Neuruppin, Weather by CustomWeather, © 2015

Note: Actual official high and low records may vary slightly from our data, if they occured in-between our weather recording intervals... More about our weather records

Advertising

Neuruppin weather history for previous 24 hours

 ConditionsComfort  
Time TempWeatherWind HumidityBarometerVisibility
7:00 AM
Sat, Aug 1
49 °FSunny.1 mph93%30.10 "Hg6 mi
6:00 AM48 °FOvercast.No wind97%30.10 "Hg6 mi
4:00 AM46 °FClear.No wind97%30.11 "Hg0 mi
3:00 AM47 °FClear.No wind96%30.12 "Hg1 mi
2:00 AM47 °FClear.1 mph96%30.11 "Hg4 mi
1:00 AM49 °FClear.No wind94%30.10 "Hg6 mi
12:00 AM50 °FClear.No wind88%30.09 "Hg6 mi
11:00 PM
Fri, Jul 31
52 °FClear.No wind81%30.09 "Hg6 mi
10:00 PM56 °FOvercast.No wind74%30.09 "Hg6 mi
9:00 PM58 °FOvercast.No wind67%30.09 "Hg6 mi
8:00 PM61 °FOvercast.1 mph58%30.08 "Hg6 mi
7:00 PM62 °FOvercast.1 mph51%30.08 "Hg6 mi
6:00 PM62 °FOvercast.1 mph55%30.07 "Hg6 mi
4:00 PM62 °FOvercast.3 mph55%30.09 "Hg6 mi
3:00 PM63 °FOvercast.5 mph48%30.09 "Hg6 mi
2:00 PM62 °FOvercast.3 mph54%30.09 "Hg6 mi
1:00 PM60 °FOvercast.5 mph57%30.08 "Hg6 mi
12:00 PM61 °FOvercast.2 mph58%30.08 "Hg6 mi
10:00 AM59 °FPartly sunny.3 mph64%30.06 "Hg6 mi
9:00 AM57 °FPartly sunny.5 mph72%30.06 "Hg6 mi
8:00 AM54 °FSunny.3 mph84%30.04 "Hg6 mi
Weather by CustomWeather, © 2015

See weather overviewHow to use our weather pages